FLOCK 4G 26

导读

FLOCK 4G 26是美国Planet公司Flock系列星座中的一颗小型地球观测卫星,于2025年1月14日发射。该卫星主要用于高分辨率光学成像,可实现日常全球范围的图像采集,其获取的数据广泛应用于环境监测、农业管理、灾害评估等领域,是Planet构建大规模高频次地球观测卫星星座的重要组成部分。

Basic Information
目录编号:
62633
目录名称:
FLOCK 4G 26
国际标识:
2025-009AA
轨道中心:
EARTH
卫星名称:
FLOCK 4G 26
卫星全名:
FLOCK 4G 26
卫星状态:
在轨 (已飞行598 天)
发射日期:
2025-01-14 UTC
国别 :
美国 (US)
星等 :
--
Orbit Information
数据来源 国际轨道数据
星历时间: 2026-09-03T23:46:33+0800
23小时前
查看轨道信息
半长轴: 6850.928km
偏心率: 0.0003915
轨道倾角: 97.397°
近地点辐角 47.866°
升交点赤经 328.370°
平近点角 312.292°
近地点: 470.108km
远地点: 475.474km
周期: 94.055分钟
每日圈数: 15.310123
Detailed Information
使用方式:
暂无
2D Orbit Map
3D Orbit Map
Orbit Altitude Analysis Chart
Orbit Inclination Analysis Chart
Orbit Comprehensive Analysis Chart
View Comprehensive Chart
Conjunction Data List
Event ID Objects TCA Miss Dist (km) Collision Risk Probability Collision Risk Index (CRI) Action
CDM_260905-235004-102606-263321
2026-09-05T
23:50:10+0000
2.152 km
极远距离
1.510447E-6 低风险 0.39
CDM_260903-004006-263306-630423
OBJECT M (66304)
2026-09-03T
00:40:37+0000
2.541 km
极远距离
1.419222E-6 低风险 0.38